[Iaude] MPEC S224: 2023 SV6 [a=1.87,e=0.40,i=10.5,H=24.4]
    mpec at marsden.cfa.harvard.edu 
    mpec at marsden.cfa.harvard.edu
       
    Tue Sep 26 07:21:47 EDT 2023
    
    
  
M.P.E.C. 2023-S224                           Issued 2023 September 26, 11:20 UT
     The Minor Planet Electronic Circulars contain information on unusual
         minor planets, routine data on comets and natural satellites,
         and occasional editorial announcements.  They are published
    on behalf of Division F of the International Astronomical Union by the
          Minor Planet Center, Smithsonian Astrophysical Observatory,
                          Cambridge, MA 02138, U.S.A.
			  
             Prepared using the Tamkin Foundation Computer Network
                              MPC at CFA.HARVARD.EDU
            URL https://www.minorplanetcenter.net/    ISSN 1523-6714
                                    2023 SV6                                    
Observations:
     K23S06V* C2023 09 20.44083723 43 06.701-20 48 00.74         21.65wXES224F51
     K23S06V  C2023 09 20.46440923 43 05.323-20 46 50.06         21.49wXES224F51
     K23S06V  C2023 09 20.47619723 43 04.625-20 46 14.44         21.72wXES224F51
     K23S06V  C2023 09 21.42211723 42 28.850-19 58 03.49         21.15GVES224F51
     K23S06V KC2023 09 23.34293823 41 12.203-18 13 27.48         21.25GVES224I52
     K23S06V KC2023 09 23.34630423 41 11.954-18 13 15.96         21.17GVES224I52
     K23S06V KC2023 09 23.34939623 41 11.792-18 13 05.48         21.26GVES224I52
     K23S06V KC2023 09 23.35729523 41 11.393-18 12 37.91         21.21GVES224I52
     K23S06V KC2023 09 23.42340423 41 09.796-18 08 45.76         22.98GVES224F51
     K23S06V 2C2023 09 24.44806423 40 28.726-17 08 52.23         21.9 GWES224T12
     K23S06V 2C2023 09 24.45184423 40 28.506-17 08 38.77         22.1 GWES224T12
     K23S06V 2C2023 09 24.45517123 40 28.301-17 08 26.61         21.9 GWES224T12
     K23S06V KC2023 09 26.18642 23 39 23.22 -15 21 20.2                oES224291
     K23S06V KC2023 09 26.19790 23 39 22.55 -15 20 36.2          21.2 RoES224291
     K23S06V KC2023 09 26.20952 23 39 21.91 -15 19 51.8          21.3 RoES224291
Observer details:
291 LPL/Spacewatch II.  Observer M. T. Read.  1.8-m f/2.7 reflector + CCD.
F51 Pan-STARRS 1, Haleakala.  Observers J. Bulger, T. Lowe, P. Minguez, A.
    Schultz, I. Smith, K. Chambers.  Measurers K. Chambers, T. de Boer, J.
    Bulger, J. Fairlamb, H. Gao, M. Huber, C.-C. Lin, T. Lowe, E. Magnier, P.
    Minguez, Y. Ramanjooloo, A. Schultz, I. Smith, R. Wainscoat, R. Weryk, S.
    Chastel.  1.8-m Ritchey-Chretien + CCD.
I52 Steward Observatory, Mt. Lemmon Station.  Observer A. Serrano.  Measurers
    E. J. Christensen, D. Fay, J. B. Fazekas, D. C. Fuls, A. R. Gibbs, A. D.
    Grauer, H. Groeller, J. K. Hogan, R. A. Kowalski, S. M. Larson, G. J.
    Leonard, D. Rankin, R. L. Seaman, A. Serrano, F. C. Shelly, K. W.
    Wierzchos.  1.0-m prime focus + CCD.
T12 University of Hawaii 88-inch telescope, Maunakea.  Observer J. Fairlamb.
    Measurers Y. Ramanjooloo, R. Wainscoat.  2.24-m University of Hawaii
    reflector + CCD.
Orbital elements:
2023 SV6                                                 Earth MOID = 0.1329 AU
Epoch 2023 Sept. 13.0 TT = JDT 2460200.5                Veres                   
M 344.09009              (2000.0)            P               Q                  
n   0.38468347     Peri.   17.67480     +0.88783725     -0.45910282             
a   1.8724075      Node     9.83053     +0.39709210     +0.73020814             
e   0.3996478      Incl.   10.50849     +0.23251427     +0.50598486             
P   2.56           H   24.41          G   0.15           U   9                  
Residuals in seconds of arc
230920 F51  0.1-  0.0     230923 I52  0.4-  0.0     230924 T12  0.2+  0.0
230920 F51  0.1+  0.1-    230923 I52  0.2-  0.2-    230924 T12  0.1+  0.2+
230920 F51  0.0   0.0     230923 I52  0.6+  0.1+    230926 291  0.3+  0.2-
230921 F51  0.1+  0.1+    230923 F51  0.5-  0.2-    230926 291  0.2-  0.1+
230923 I52  0.4+  0.1+    230924 T12  0.1+  0.2+    230926 291  0.0   0.2+
Ephemeris:
2023 SV6                 a,e,i = 1.87, 0.40, 11                  q = 1.1241
Date    TT    R. A. (2000) Decl.     Delta      r    Elong.  Phase     V
2023 08 27    23 50 08.7 -31 27 05   0.2848  1.2660   150.4    23.2    23.3
...
2023 09 11    23 48 20.4 -26 55 45   0.2141  1.2064   156.5    19.4    22.5
...
2023 09 19    23 44 02.0 -21 56 37   0.1848  1.1800   159.8    17.1    22.0
...
2023 09 25    23 40 07.8 -16 35 04   0.1672  1.1632   161.8    15.6    21.7
2023 09 26    23 39 28.7 -15 32 41   0.1647  1.1606   162.0    15.5    21.7
2023 09 27    23 38 50.1 -14 27 47   0.1623  1.1582   162.2    15.3    21.6
...
2023 10 03    23 35 17.8 -07 08 09   0.1508  1.1451   161.8    15.8    21.5
...
2023 10 11    23 32 18.6 +04 20 31   0.1436  1.1324   157.3    19.9    21.5
...
2023 10 26    23 37 11.1 +25 44 17   0.1561  1.1242   143.9    31.4    22.0
M. P. C. Staff               (C) Copyright 2023 MPC           M.P.E.C. 2023-S224
    
    
More information about the Iaude
mailing list